Location: D�nning
(49.2479°N, 12.8491°E)
Time: 14:06:32
(UTC+00:00)

Terra - Pass Details

Date: 18 September 2020
Orbit: 701 x 703 km, 98.2° (Epoch: 24 October)

Event Time Altitude Azimuth Distance (km) Brightness Sun altitude
Exits shadow 21:58:06 18° 314° (NW) 1,692 4.3 -37.5°
Drops below altitude 10° 21:59:39 10° 327° (NNW) 2,182 5.0 -37.6°
Sets 22:02:10 0° 338° (NNW) 3,106 6.1 -37.7°
